Time,TemperatureF,DewpointF,PressureIn,WindDirection,WindDirectionDegrees,WindSpeedMPH,WindSpeedGustMPH,Humidity,HourlyPrecipIn,Conditions,Clouds,dailyrainin,SoftwareType,DateUTC
2016-02-06 00:04:00,27.6,22.8,30.35,North,349,0.0,0.0,82,0.00,,,0.00,Wunderground v.1.15,2016-02-06 05:04:00,
2016-02-06 00:09:00,27.5,23.0,30.35,North,349,0.0,0.0,83,0.00,,,0.00,Wunderground v.1.15,2016-02-06 05:09:00,
2016-02-06 00:15:00,27.3,22.8,30.35,North,349,0.0,0.0,83,0.00,,,0.00,Wunderground v.1.15,2016-02-06 05:15:00,
2016-02-06 00:21:00,27.0,22.8,30.34,North,349,0.0,0.0,84,0.00,,,0.00,Wunderground v.1.15,2016-02-06 05:21:00,
2016-02-06 00:26:00,27.0,22.8,30.34,North,349,0.0,0.0,84,0.00,,,0.00,Wunderground v.1.15,2016-02-06 05:26:00,
2016-02-06 00:31:00,27.0,22.8,30.34,North,349,0.0,0.0,84,0.00,,,0.00,Wunderground v.1.15,2016-02-06 05:31:00,
2016-02-06 00:37:00,27.0,22.8,30.35,North,349,0.0,0.0,84,0.00,,,0.00,Wunderground v.1.15,2016-02-06 05:37:00,
2016-02-06 00:43:00,27.0,22.8,30.35,North,349,0.0,0.0,84,0.00,,,0.00,Wunderground v.1.15,2016-02-06 05:43:00,
2016-02-06 00:48:00,26.9,22.7,30.35,North,349,0.0,0.0,84,0.00,,,0.00,Wunderground v.1.15,2016-02-06 05:48:00,
2016-02-06 00:54:00,26.7,22.5,30.35,North,349,0.0,0.0,84,0.00,,,0.00,Wunderground v.1.15,2016-02-06 05:54:00,
2016-02-06 01:00:00,26.6,22.7,30.35,North,349,0.0,0.0,85,0.00,,,0.00,Wunderground v.1.15,2016-02-06 06:00:00,
2016-02-06 01:06:00,26.6,22.7,30.34,North,349,0.0,0.0,85,0.00,,,0.00,Wunderground v.1.15,2016-02-06 06:06:00,
2016-02-06 01:18:00,26.4,22.8,30.34,North,349,0.0,0.0,86,0.00,,,0.00,Wunderground v.1.15,2016-02-06 06:18:00,
2016-02-06 01:24:00,26.4,22.8,30.34,North,349,0.0,0.0,86,0.00,,,0.00,Wunderground v.1.15,2016-02-06 06:24:00,
2016-02-06 01:29:00,26.3,22.7,30.34,North,349,0.0,0.0,86,0.00,,,0.00,Wunderground v.1.15,2016-02-06 06:29:00,
2016-02-06 01:41:00,26.0,22.4,30.33,North,349,0.0,0.0,86,0.00,,,0.00,Wunderground v.1.15,2016-02-06 06:41:00,
2016-02-06 01:46:00,26.0,22.7,30.33,North,349,0.0,0.0,87,0.00,,,0.00,Wunderground v.1.15,2016-02-06 06:46:00,
2016-02-06 01:52:00,25.8,22.5,30.34,North,349,0.0,0.0,87,0.00,,,0.00,Wunderground v.1.15,2016-02-06 06:52:00,
2016-02-06 01:57:00,25.8,22.5,30.34,North,349,0.0,0.0,87,0.00,,,0.00,Wunderground v.1.15,2016-02-06 06:57:00,
2016-02-06 02:02:00,25.7,22.4,30.34,North,350,0.0,0.0,87,0.00,,,0.00,Wunderground v.1.15,2016-02-06 07:02:00,
2016-02-06 02:12:00,25.7,22.4,30.34,North,349,0.0,0.0,87,0.00,,,0.00,Wunderground v.1.15,2016-02-06 07:12:00,
2016-02-06 02:17:00,25.6,22.5,30.34,North,349,0.0,0.0,88,0.00,,,0.00,Wunderground v.1.15,2016-02-06 07:17:00,
2016-02-06 02:22:00,25.6,22.5,30.34,North,349,0.0,0.0,88,0.00,,,0.00,Wunderground v.1.15,2016-02-06 07:22:00,
2016-02-06 02:27:00,25.6,22.5,30.34,North,349,0.0,0.0,88,0.00,,,0.00,Wunderground v.1.15,2016-02-06 07:27:00,
2016-02-06 02:37:00,25.6,22.5,30.34,North,349,0.0,0.0,88,0.00,,,0.00,Wunderground v.1.15,2016-02-06 07:37:00,
2016-02-06 02:42:00,25.4,22.3,30.34,North,350,0.0,0.0,88,0.00,,,0.00,Wunderground v.1.15,2016-02-06 07:42:00,
2016-02-06 02:47:00,25.3,22.2,30.34,North,349,0.0,0.0,88,0.00,,,0.00,Wunderground v.1.15,2016-02-06 07:47:00,
2016-02-06 02:52:00,25.1,22.0,30.35,North,349,0.0,0.0,88,0.00,,,0.00,Wunderground v.1.15,2016-02-06 07:52:00,
2016-02-06 02:57:00,25.1,22.0,30.35,North,349,0.0,0.0,88,0.00,,,0.00,Wunderground v.1.15,2016-02-06 07:57:00,
2016-02-06 03:02:00,25.1,22.0,30.35,North,350,0.0,0.0,88,0.00,,,0.00,Wunderground v.1.15,2016-02-06 08:02:00,
2016-02-06 03:07:00,25.1,22.0,30.34,North,349,0.0,0.0,88,0.00,,,0.00,Wunderground v.1.15,2016-02-06 08:07:00,
2016-02-06 03:17:00,25.1,22.3,30.34,North,349,0.0,0.0,89,0.00,,,0.00,Wunderground v.1.15,2016-02-06 08:17:00,
2016-02-06 03:22:00,25.0,22.2,30.34,North,349,0.0,0.0,89,0.00,,,0.00,Wunderground v.1.15,2016-02-06 08:22:00,
2016-02-06 03:27:00,25.0,22.2,30.34,North,350,0.0,0.0,89,0.00,,,0.00,Wunderground v.1.15,2016-02-06 08:27:00,
2016-02-06 03:37:00,25.0,22.2,30.34,North,349,0.0,0.0,89,0.00,,,0.00,Wunderground v.1.15,2016-02-06 08:37:00,
2016-02-06 03:42:00,24.8,22.0,30.34,North,350,0.0,0.0,89,0.00,,,0.00,Wunderground v.1.15,2016-02-06 08:42:00,
2016-02-06 03:47:00,24.8,22.0,30.34,North,349,0.0,0.0,89,0.00,,,0.00,Wunderground v.1.15,2016-02-06 08:47:00,
2016-02-06 04:02:00,24.7,22.2,30.34,North,349,0.0,0.0,90,0.00,,,0.00,Wunderground v.1.15,2016-02-06 09:02:00,
2016-02-06 04:07:00,24.5,22.0,30.34,North,349,0.0,0.0,90,0.00,,,0.00,Wunderground v.1.15,2016-02-06 09:07:00,
2016-02-06 04:12:00,24.4,21.9,30.34,North,349,0.0,0.0,90,0.00,,,0.00,Wunderground v.1.15,2016-02-06 09:12:00,
2016-02-06 04:17:00,24.4,21.9,30.34,North,349,0.0,0.0,90,0.00,,,0.00,Wunderground v.1.15,2016-02-06 09:17:00,
2016-02-06 04:23:00,24.2,21.7,30.34,North,349,0.0,0.0,90,0.00,,,0.00,Wunderground v.1.15,2016-02-06 09:23:00,
2016-02-06 04:28:00,24.1,21.6,30.34,North,349,0.0,0.0,90,0.00,,,0.00,Wunderground v.1.15,2016-02-06 09:28:00,
2016-02-06 04:33:00,23.8,21.3,30.34,North,350,0.0,0.0,90,0.00,,,0.00,Wunderground v.1.15,2016-02-06 09:33:00,
2016-02-06 04:38:00,23.6,21.1,30.34,North,349,0.0,0.0,90,0.00,,,0.00,Wunderground v.1.15,2016-02-06 09:38:00,
2016-02-06 04:43:00,23.6,21.1,30.34,North,349,0.0,0.0,90,0.00,,,0.00,Wunderground v.1.15,2016-02-06 09:43:00,
2016-02-06 04:48:00,23.5,21.0,30.35,North,349,0.0,0.0,90,0.00,,,0.00,Wunderground v.1.15,2016-02-06 09:48:00,
2016-02-06 04:53:00,23.5,21.0,30.35,North,349,0.0,0.0,90,0.00,,,0.00,Wunderground v.1.15,2016-02-06 09:53:00,
2016-02-06 04:58:00,23.5,21.0,30.35,North,349,0.0,0.0,90,0.00,,,0.00,Wunderground v.1.15,2016-02-06 09:58:00,
2016-02-06 05:03:00,23.3,20.8,30.35,North,349,0.0,0.0,90,0.00,,,0.00,Wunderground v.1.15,2016-02-06 10:03:00,
2016-02-06 05:08:00,23.3,20.8,30.35,North,349,0.0,0.0,90,0.00,,,0.00,Wunderground v.1.15,2016-02-06 10:08:00,
2016-02-06 05:13:00,23.2,20.7,30.35,North,349,0.0,0.0,90,0.00,,,0.00,Wunderground v.1.15,2016-02-06 10:13:00,
2016-02-06 05:18:00,23.2,21.0,30.35,North,349,0.0,0.0,91,0.00,,,0.00,Wunderground v.1.15,2016-02-06 10:18:00,
2016-02-06 05:23:00,23.0,20.8,30.35,North,349,0.0,0.0,91,0.00,,,0.00,Wunderground v.1.15,2016-02-06 10:23:00,
2016-02-06 05:33:00,23.0,20.8,30.35,North,349,0.0,0.0,91,0.00,,,0.00,Wunderground v.1.15,2016-02-06 10:33:00,
2016-02-06 05:38:00,22.9,20.7,30.35,North,349,0.0,0.0,91,0.00,,,0.00,Wunderground v.1.15,2016-02-06 10:38:00,
2016-02-06 05:43:00,22.9,20.7,30.35,North,350,0.0,0.0,91,0.00,,,0.00,Wunderground v.1.15,2016-02-06 10:43:00,
2016-02-06 05:48:00,22.9,20.7,30.35,North,349,0.0,0.0,91,0.00,,,0.00,Wunderground v.1.15,2016-02-06 10:48:00,
2016-02-06 05:53:00,22.7,20.5,30.35,North,349,0.0,0.0,91,0.00,,,0.00,Wunderground v.1.15,2016-02-06 10:53:00,
2016-02-06 05:58:00,22.7,20.5,30.35,North,350,0.0,0.0,91,0.00,,,0.00,Wunderground v.1.15,2016-02-06 10:58:00,
2016-02-06 06:03:00,22.7,20.5,30.35,North,349,0.0,0.0,91,0.00,,,0.00,Wunderground v.1.15,2016-02-06 11:03:00,
2016-02-06 06:08:00,22.5,20.3,30.35,North,349,0.0,0.0,91,0.00,,,0.00,Wunderground v.1.15,2016-02-06 11:08:00,
2016-02-06 06:13:00,22.4,20.2,30.35,North,350,0.0,0.0,91,0.00,,,0.00,Wunderground v.1.15,2016-02-06 11:13:00,
2016-02-06 06:18:00,22.4,20.2,30.36,North,350,0.0,0.0,91,0.00,,,0.00,Wunderground v.1.15,2016-02-06 11:18:00,
2016-02-06 06:23:00,22.4,20.2,30.36,North,349,0.0,0.0,91,0.00,,,0.00,Wunderground v.1.15,2016-02-06 11:23:00,
2016-02-06 06:28:00,22.2,20.0,30.36,North,349,0.0,0.0,91,0.00,,,0.00,Wunderground v.1.15,2016-02-06 11:28:00,
2016-02-06 06:33:00,22.2,20.0,30.35,North,350,0.0,0.0,91,0.00,,,0.00,Wunderground v.1.15,2016-02-06 11:33:00,
2016-02-06 06:38:00,22.1,19.9,30.35,North,349,0.0,0.0,91,0.00,,,0.00,Wunderground v.1.15,2016-02-06 11:38:00,
2016-02-06 06:43:00,21.9,19.7,30.35,North,349,0.0,0.0,91,0.00,,,0.00,Wunderground v.1.15,2016-02-06 11:43:00,
2016-02-06 06:48:00,21.6,19.4,30.35,North,349,0.0,0.0,91,0.00,,,0.00,Wunderground v.1.15,2016-02-06 11:48:00,
2016-02-06 06:53:00,21.4,19.2,30.35,North,349,0.0,0.0,91,0.00,,,0.00,Wunderground v.1.15,2016-02-06 11:53:00,
2016-02-06 06:58:00,21.3,19.1,30.35,North,349,0.0,0.0,91,0.00,,,0.00,Wunderground v.1.15,2016-02-06 11:58:00,
2016-02-06 07:03:00,21.3,19.1,30.35,North,349,0.0,0.0,91,0.00,,,0.00,Wunderground v.1.15,2016-02-06 12:03:00,
2016-02-06 07:08:00,21.3,19.1,30.35,North,350,0.0,0.0,91,0.00,,,0.00,Wunderground v.1.15,2016-02-06 12:08:00,
2016-02-06 07:13:00,21.1,18.9,30.35,North,349,0.0,0.0,91,0.00,,,0.00,Wunderground v.1.15,2016-02-06 12:13:00,
2016-02-06 07:18:00,21.1,18.9,30.35,North,350,0.0,0.0,91,0.00,,,0.00,Wunderground v.1.15,2016-02-06 12:18:00,
2016-02-06 07:33:00,21.0,18.8,30.36,North,349,0.0,0.0,91,0.00,,,0.00,Wunderground v.1.15,2016-02-06 12:33:00,
2016-02-06 07:38:00,21.0,19.0,30.36,North,350,0.0,0.0,92,0.00,,,0.00,Wunderground v.1.15,2016-02-06 12:38:00,
2016-02-06 07:43:00,21.0,19.0,30.36,North,350,0.0,0.0,92,0.00,,,0.00,Wunderground v.1.15,2016-02-06 12:43:00,
2016-02-06 07:48:00,21.0,19.0,30.35,North,349,0.0,0.0,92,0.00,,,0.00,Wunderground v.1.15,2016-02-06 12:48:00,
2016-02-06 08:03:00,21.1,19.1,30.36,North,349,0.0,0.0,92,0.00,,,0.00,Wunderground v.1.15,2016-02-06 13:03:00,
2016-02-06 08:13:00,21.3,19.3,30.36,North,349,0.0,0.0,92,0.00,,,0.00,Wunderground v.1.15,2016-02-06 13:13:00,
2016-02-06 08:18:00,21.3,19.3,30.36,North,350,0.0,0.0,92,0.00,,,0.00,Wunderground v.1.15,2016-02-06 13:18:00,
2016-02-06 08:23:00,21.3,19.3,30.36,North,349,0.0,0.0,92,0.00,,,0.00,Wunderground v.1.15,2016-02-06 13:23:00,
2016-02-06 08:28:00,21.6,19.6,30.36,North,349,0.0,0.0,92,0.00,,,0.00,Wunderground v.1.15,2016-02-06 13:28:00,
2016-02-06 08:33:00,21.6,19.6,30.36,North,349,0.0,0.0,92,0.00,,,0.00,Wunderground v.1.15,2016-02-06 13:33:00,
2016-02-06 08:38:00,21.6,19.6,30.36,North,350,0.0,0.0,92,0.00,,,0.00,Wunderground v.1.15,2016-02-06 13:38:00,
2016-02-06 08:48:00,21.9,19.9,30.36,North,349,0.0,0.0,92,0.00,,,0.00,Wunderground v.1.15,2016-02-06 13:48:00,
2016-02-06 08:54:00,22.4,20.7,30.36,North,349,0.0,0.0,93,0.00,,,0.00,Wunderground v.1.15,2016-02-06 13:54:00,
2016-02-06 08:59:00,23.0,21.3,30.36,North,349,0.0,0.0,93,0.00,,,0.00,Wunderground v.1.15,2016-02-06 13:59:00,
2016-02-06 09:04:00,23.9,22.4,30.36,North,349,0.0,0.0,94,0.00,,,0.00,Wunderground v.1.15,2016-02-06 14:04:00,
2016-02-06 09:09:00,24.4,22.7,30.36,North,349,0.0,1.0,93,0.00,,,0.00,Wunderground v.1.15,2016-02-06 14:09:00,
2016-02-06 09:24:00,25.6,23.6,30.36,North,349,0.0,1.0,92,0.00,,,0.00,Wunderground v.1.15,2016-02-06 14:24:00,
2016-02-06 09:29:00,26.0,24.0,30.36,North,349,0.0,1.0,92,0.00,,,0.00,Wunderground v.1.15,2016-02-06 14:29:00,
2016-02-06 09:34:00,26.4,24.4,30.36,North,349,0.0,0.0,92,0.00,,,0.00,Wunderground v.1.15,2016-02-06 14:34:00,
2016-02-06 09:39:00,27.0,24.7,30.36,NNW,346,0.0,1.0,91,0.00,,,0.00,Wunderground v.1.15,2016-02-06 14:39:00,
2016-02-06 09:44:00,27.5,25.0,30.36,NNW,338,0.0,1.0,90,0.00,,,0.00,Wunderground v.1.15,2016-02-06 14:44:00,
2016-02-06 09:54:00,28.1,24.7,30.36,WSW,247,1.0,4.0,87,0.00,,,0.00,Wunderground v.1.15,2016-02-06 14:54:00,
2016-02-06 09:59:00,28.5,24.8,30.36,WSW,247,0.0,4.0,86,0.00,,,0.00,Wunderground v.1.15,2016-02-06 14:59:00,
2016-02-06 10:04:00,29.0,25.1,30.36,WSW,247,0.0,2.0,85,0.00,,,0.00,Wunderground v.1.15,2016-02-06 15:04:00,
2016-02-06 10:09:00,29.4,24.6,30.36,SSW,203,0.0,5.0,82,0.00,,,0.00,Wunderground v.1.15,2016-02-06 15:09:00,
2016-02-06 10:14:00,29.8,24.4,30.36,SW,229,6.0,6.0,80,0.00,,,0.00,Wunderground v.1.15,2016-02-06 15:14:00,
2016-02-06 10:19:00,30.1,24.1,30.36,SW,221,0.0,6.0,78,0.00,,,0.00,Wunderground v.1.15,2016-02-06 15:19:00,
2016-02-06 10:24:00,30.3,23.3,30.36,SW,215,5.0,7.0,75,0.00,,,0.00,Wunderground v.1.15,2016-02-06 15:24:00,
2016-02-06 10:29:00,30.4,22.8,30.36,SW,215,1.0,7.0,73,0.00,,,0.00,Wunderground v.1.15,2016-02-06 15:29:00,
2016-02-06 10:34:00,31.0,23.4,30.36,SW,221,0.0,5.0,73,0.00,,,0.00,Wunderground v.1.15,2016-02-06 15:34:00,
2016-02-06 10:39:00,31.6,23.6,30.36,SSW,213,0.0,5.0,72,0.00,,,0.00,Wunderground v.1.15,2016-02-06 15:39:00,
2016-02-06 10:44:00,32.1,23.1,30.36,SSW,211,2.0,6.0,69,0.00,,,0.00,Wunderground v.1.15,2016-02-06 15:44:00,
2016-02-06 10:49:00,32.1,22.4,30.36,SSW,212,6.0,6.0,67,0.00,,,0.00,Wunderground v.1.15,2016-02-06 15:49:00,
2016-02-06 10:54:00,32.5,22.8,30.36,SSW,209,3.0,7.0,67,0.00,,,0.00,Wunderground v.1.15,2016-02-06 15:54:00,
2016-02-06 10:59:00,32.7,21.9,30.36,South,183,5.0,7.0,64,0.00,,,0.00,Wunderground v.1.15,2016-02-06 15:59:00,
2016-02-06 11:04:00,32.8,22.0,30.36,South,191,4.0,6.0,64,0.00,,,0.00,Wunderground v.1.15,2016-02-06 16:04:00,
2016-02-06 11:09:00,32.9,22.4,30.36,SSW,207,1.0,6.0,65,0.00,,,0.00,Wunderground v.1.15,2016-02-06 16:09:00,
2016-02-06 11:14:00,33.1,22.2,30.36,NW,306,4.0,6.0,64,0.00,,,0.00,Wunderground v.1.15,2016-02-06 16:14:00,
2016-02-06 11:19:00,33.5,22.2,30.36,SSW,206,4.0,6.0,63,0.00,,,0.00,Wunderground v.1.15,2016-02-06 16:19:00,
2016-02-06 11:24:00,33.7,22.4,30.36,West,270,2.0,7.0,63,0.00,,,0.00,Wunderground v.1.15,2016-02-06 16:24:00,
2016-02-06 11:29:00,34.0,19.5,30.36,West,272,4.0,7.0,55,0.00,,,0.00,Wunderground v.1.15,2016-02-06 16:29:00,
2016-02-06 11:35:00,34.3,18.0,30.36,WNW,282,1.0,7.0,51,0.00,,,0.00,Wunderground v.1.15,2016-02-06 16:35:00,
2016-02-06 11:40:00,34.6,17.8,30.36,SW,219,6.0,9.0,50,0.00,,,0.00,Wunderground v.1.15,2016-02-06 16:40:00,
2016-02-06 11:45:00,34.9,17.7,30.36,WSW,241,8.0,8.0,49,0.00,,,0.00,Wunderground v.1.15,2016-02-06 16:45:00,
2016-02-06 11:55:00,35.3,19.0,30.35,WSW,254,2.0,7.0,51,0.00,,,0.00,Wunderground v.1.15,2016-02-06 16:55:00,
2016-02-06 12:00:00,35.5,18.2,30.35,SW,234,0.0,2.0,49,0.00,,,0.00,Wunderground v.1.15,2016-02-06 17:00:00,
2016-02-06 12:05:00,35.6,17.3,30.34,WNW,288,3.0,7.0,47,0.00,,,0.00,Wunderground v.1.15,2016-02-06 17:05:00,
2016-02-06 12:10:00,35.9,18.6,30.34,SW,218,7.0,7.0,49,0.00,,,0.00,Wunderground v.1.15,2016-02-06 17:10:00,
2016-02-06 12:15:00,36.0,17.7,30.34,West,274,3.0,7.0,47,0.00,,,0.00,Wunderground v.1.15,2016-02-06 17:15:00,
2016-02-06 12:20:00,36.3,17.5,30.34,SSW,211,5.0,6.0,46,0.00,,,0.00,Wunderground v.1.15,2016-02-06 17:20:00,
2016-02-06 12:30:00,36.9,18.5,30.34,SW,225,0.0,2.0,47,0.00,,,0.00,Wunderground v.1.15,2016-02-06 17:30:00,
2016-02-06 12:35:00,37.0,16.5,30.32,SW,228,4.0,6.0,43,0.00,,,0.00,Wunderground v.1.15,2016-02-06 17:35:00,
2016-02-06 12:40:00,37.2,18.3,30.32,NW,304,4.0,5.0,46,0.00,,,0.00,Wunderground v.1.15,2016-02-06 17:40:00,
2016-02-06 12:45:00,37.5,17.5,30.32,SW,232,1.0,6.0,44,0.00,,,0.00,Wunderground v.1.15,2016-02-06 17:45:00,
2016-02-06 12:50:00,37.5,16.5,30.32,West,274,1.0,4.0,42,0.00,,,0.00,Wunderground v.1.15,2016-02-06 17:50:00,
2016-02-06 12:55:00,37.8,17.3,30.32,SW,226,2.0,6.0,43,0.00,,,0.00,Wunderground v.1.15,2016-02-06 17:55:00,
2016-02-06 13:00:00,37.9,16.8,30.32,SW,219,0.0,3.0,42,0.00,,,0.00,Wunderground v.1.15,2016-02-06 18:00:00,
2016-02-06 13:05:00,38.2,16.0,30.31,West,271,3.0,6.0,40,0.00,,,0.00,Wunderground v.1.15,2016-02-06 18:05:00,
2016-02-06 13:10:00,38.3,16.6,30.31,WSW,257,2.0,5.0,41,0.00,,,0.00,Wunderground v.1.15,2016-02-06 18:10:00,
2016-02-06 13:15:00,38.5,17.9,30.31,West,259,4.0,6.0,43,0.00,,,0.00,Wunderground v.1.15,2016-02-06 18:15:00,
2016-02-06 13:20:00,38.9,14.2,30.30,West,279,6.0,6.0,36,0.00,,,0.00,Wunderground v.1.15,2016-02-06 18:20:00,
2016-02-06 13:25:00,38.6,15.1,30.30,SSW,203,3.0,7.0,38,0.00,,,0.00,Wunderground v.1.15,2016-02-06 18:25:00,
2016-02-06 13:30:00,38.8,15.3,30.30,West,269,5.0,6.0,38,0.00,,,0.00,Wunderground v.1.15,2016-02-06 18:30:00,
2016-02-06 13:35:00,39.1,14.4,30.29,SSW,200,4.0,9.0,36,0.00,,,0.00,Wunderground v.1.15,2016-02-06 18:35:00,
2016-02-06 13:40:00,39.6,14.2,30.29,West,261,0.0,4.0,35,0.00,,,0.00,Wunderground v.1.15,2016-02-06 18:40:00,
2016-02-06 13:45:00,40.2,15.3,30.29,SSW,209,1.0,6.0,36,0.00,,,0.00,Wunderground v.1.15,2016-02-06 18:45:00,
2016-02-06 13:50:00,40.3,16.7,30.28,West,265,3.0,4.0,38,0.00,,,0.00,Wunderground v.1.15,2016-02-06 18:50:00,
2016-02-06 13:55:00,40.5,12.9,30.28,WNW,298,6.0,9.0,32,0.00,,,0.00,Wunderground v.1.15,2016-02-06 18:55:00,
2016-02-06 14:00:00,40.5,14.3,30.28,West,261,7.0,7.0,34,0.00,,,0.00,Wunderground v.1.15,2016-02-06 19:00:00,
2016-02-06 14:05:00,40.6,13.7,30.28,West,259,1.0,7.0,33,0.00,,,0.00,Wunderground v.1.15,2016-02-06 19:05:00,
2016-02-06 14:10:00,40.9,13.3,30.28,SW,222,4.0,5.0,32,0.00,,,0.00,Wunderground v.1.15,2016-02-06 19:10:00,
2016-02-06 14:20:00,41.1,14.1,30.28,SW,217,2.0,4.0,33,0.00,,,0.00,Wunderground v.1.15,2016-02-06 19:20:00,
2016-02-06 14:25:00,41.5,14.5,30.28,SW,218,2.0,8.0,33,0.00,,,0.00,Wunderground v.1.15,2016-02-06 19:25:00,
2016-02-06 14:30:00,41.6,13.2,30.28,SW,226,2.0,5.0,31,0.00,,,0.00,Wunderground v.1.15,2016-02-06 19:30:00,
2016-02-06 14:35:00,41.3,15.0,30.27,West,265,5.0,9.0,34,0.00,,,0.00,Wunderground v.1.15,2016-02-06 19:35:00,
2016-02-06 14:40:00,41.5,15.2,30.27,SW,225,4.0,4.0,34,0.00,,,0.00,Wunderground v.1.15,2016-02-06 19:40:00,
2016-02-06 14:45:00,41.8,16.1,30.27,SW,234,4.0,9.0,35,0.00,,,0.00,Wunderground v.1.15,2016-02-06 19:45:00,
2016-02-06 14:51:00,41.8,16.8,30.26,WSW,248,0.0,8.0,36,0.00,,,0.00,Wunderground v.1.15,2016-02-06 19:51:00,
2016-02-06 14:56:00,42.1,15.7,30.26,WSW,249,2.0,8.0,34,0.00,,,0.00,Wunderground v.1.15,2016-02-06 19:56:00,
2016-02-06 15:01:00,42.5,16.1,30.26,SSW,196,2.0,6.0,34,0.00,,,0.00,Wunderground v.1.15,2016-02-06 20:01:00,
2016-02-06 15:06:00,42.9,15.7,30.26,WSW,252,6.0,7.0,33,0.00,,,0.00,Wunderground v.1.15,2016-02-06 20:06:00,
2016-02-06 15:11:00,42.8,16.3,30.26,SW,226,1.0,5.0,34,0.00,,,0.00,Wunderground v.1.15,2016-02-06 20:11:00,
2016-02-06 15:16:00,42.8,14.2,30.26,WSW,237,5.0,6.0,31,0.00,,,0.00,Wunderground v.1.15,2016-02-06 20:16:00,
2016-02-06 15:21:00,42.9,17.1,30.26,SW,215,2.0,5.0,35,0.00,,,0.00,Wunderground v.1.15,2016-02-06 20:21:00,
2016-02-06 15:26:00,43.1,15.2,30.26,West,265,3.0,7.0,32,0.00,,,0.00,Wunderground v.1.15,2016-02-06 20:26:00,
2016-02-06 15:31:00,43.1,15.9,30.26,SW,214,0.0,4.0,33,0.00,,,0.00,Wunderground v.1.15,2016-02-06 20:31:00,
2016-02-06 15:36:00,43.1,15.2,30.26,SW,233,4.0,10.0,32,0.00,,,0.00,Wunderground v.1.15,2016-02-06 20:36:00,
2016-02-06 15:41:00,43.1,15.2,30.26,South,190,3.0,8.0,32,0.00,,,0.00,Wunderground v.1.15,2016-02-06 20:41:00,
2016-02-06 15:46:00,42.9,15.7,30.26,WNW,294,6.0,10.0,33,0.00,,,0.00,Wunderground v.1.15,2016-02-06 20:46:00,
2016-02-06 15:51:00,42.8,16.3,30.26,West,277,8.0,8.0,34,0.00,,,0.00,Wunderground v.1.15,2016-02-06 20:51:00,
2016-02-06 15:56:00,42.6,16.2,30.26,West,270,4.0,8.0,34,0.00,,,0.00,Wunderground v.1.15,2016-02-06 20:56:00,
2016-02-06 16:01:00,42.8,17.0,30.26,SW,229,6.0,7.0,35,0.00,,,0.00,Wunderground v.1.15,2016-02-06 21:01:00,
2016-02-06 16:06:00,42.9,17.7,30.26,SW,218,5.0,7.0,36,0.00,,,0.00,Wunderground v.1.15,2016-02-06 21:06:00,
2016-02-06 16:11:00,43.1,17.3,30.26,SW,225,2.0,7.0,35,0.00,,,0.00,Wunderground v.1.15,2016-02-06 21:11:00,
2016-02-06 16:16:00,42.9,17.1,30.26,WSW,248,2.0,9.0,35,0.00,,,0.00,Wunderground v.1.15,2016-02-06 21:16:00,
2016-02-06 16:21:00,43.1,18.6,30.26,WSW,258,4.0,5.0,37,0.00,,,0.00,Wunderground v.1.15,2016-02-06 21:21:00,
2016-02-06 16:26:00,43.1,18.6,30.26,SSW,209,5.0,10.0,37,0.00,,,0.00,Wunderground v.1.15,2016-02-06 21:26:00,
2016-02-06 16:31:00,42.9,19.0,30.26,WSW,238,4.0,4.0,38,0.00,,,0.00,Wunderground v.1.15,2016-02-06 21:31:00,
2016-02-06 16:36:00,42.9,18.4,30.26,WSW,240,0.0,7.0,37,0.00,,,0.00,Wunderground v.1.15,2016-02-06 21:36:00,
2016-02-06 16:41:00,42.9,19.6,30.26,SSW,206,6.0,6.0,39,0.00,,,0.00,Wunderground v.1.15,2016-02-06 21:41:00,
2016-02-06 16:46:00,43.1,19.2,30.26,West,263,0.0,8.0,38,0.00,,,0.00,Wunderground v.1.15,2016-02-06 21:46:00,
2016-02-06 16:51:00,43.1,18.6,30.26,WSW,244,4.0,6.0,37,0.00,,,0.00,Wunderground v.1.15,2016-02-06 21:51:00,
2016-02-06 17:01:00,43.2,19.3,30.26,SW,236,4.0,4.0,38,0.00,,,0.00,Wunderground v.1.15,2016-02-06 22:01:00,
2016-02-06 17:06:00,43.1,19.2,30.26,WNW,291,0.0,8.0,38,0.00,,,0.00,Wunderground v.1.15,2016-02-06 22:06:00,
2016-02-06 17:11:00,42.8,19.5,30.26,SW,225,0.0,2.0,39,0.00,,,0.00,Wunderground v.1.15,2016-02-06 22:11:00,
2016-02-06 17:16:00,42.5,19.3,30.26,SSW,212,0.0,6.0,39,0.00,,,0.00,Wunderground v.1.15,2016-02-06 22:16:00,
2016-02-06 17:21:00,42.2,19.0,30.26,WSW,237,1.0,2.0,39,0.00,,,0.00,Wunderground v.1.15,2016-02-06 22:21:00,
2016-02-06 17:26:00,42.1,19.5,30.26,SW,232,2.0,6.0,40,0.00,,,0.00,Wunderground v.1.15,2016-02-06 22:26:00,
2016-02-06 17:31:00,41.8,19.8,30.26,SW,215,0.0,4.0,41,0.00,,,0.00,Wunderground v.1.15,2016-02-06 22:31:00,
2016-02-06 17:36:00,41.5,19.5,30.26,SSW,206,0.0,5.0,41,0.00,,,0.00,Wunderground v.1.15,2016-02-06 22:36:00,
2016-02-06 17:41:00,41.3,19.9,30.26,WSW,242,1.0,2.0,42,0.00,,,0.00,Wunderground v.1.15,2016-02-06 22:41:00,
2016-02-06 17:46:00,41.1,19.7,30.26,WSW,240,0.0,6.0,42,0.00,,,0.00,Wunderground v.1.15,2016-02-06 22:46:00,
2016-02-06 17:56:00,40.6,19.8,30.26,WSW,250,0.0,4.0,43,0.00,,,0.00,Wunderground v.1.15,2016-02-06 22:56:00,
2016-02-06 18:01:00,40.3,19.5,30.26,WSW,250,0.0,0.0,43,0.00,,,0.00,Wunderground v.1.15,2016-02-06 23:01:00,
2016-02-06 18:06:00,40.1,19.9,30.26,WSW,250,0.0,0.0,44,0.00,,,0.00,Wunderground v.1.15,2016-02-06 23:06:00,
2016-02-06 18:11:00,39.8,20.2,30.26,WSW,250,0.0,0.0,45,0.00,,,0.00,Wunderground v.1.15,2016-02-06 23:11:00,
2016-02-06 18:16:00,39.3,19.7,30.26,WSW,250,0.0,0.0,45,0.00,,,0.00,Wunderground v.1.15,2016-02-06 23:16:00,
2016-02-06 18:21:00,39.1,19.5,30.26,WSW,250,0.0,0.0,45,0.00,,,0.00,Wunderground v.1.15,2016-02-06 23:21:00,
2016-02-06 18:26:00,38.6,20.1,30.26,WSW,250,0.0,0.0,47,0.00,,,0.00,Wunderground v.1.15,2016-02-06 23:26:00,
2016-02-06 18:31:00,38.2,19.7,30.26,WSW,250,0.0,0.0,47,0.00,,,0.00,Wunderground v.1.15,2016-02-06 23:31:00,
2016-02-06 18:36:00,37.8,19.8,30.26,WSW,250,0.0,0.0,48,0.00,,,0.00,Wunderground v.1.15,2016-02-06 23:36:00,
2016-02-06 18:46:00,36.9,20.0,30.26,WSW,250,0.0,0.0,50,0.00,,,0.00,Wunderground v.1.15,2016-02-06 23:46:00,
2016-02-06 18:51:00,36.6,20.2,30.25,WSW,250,0.0,0.0,51,0.00,,,0.00,Wunderground v.1.15,2016-02-06 23:51:00,
2016-02-06 18:56:00,36.2,19.8,30.25,WSW,250,0.0,0.0,51,0.00,,,0.00,Wunderground v.1.15,2016-02-06 23:56:00,